When you browse on this site, cookies collect data to enhance your experience and personalize the content and advertising you see.
Visit our Privacy Policy to learn more. By continuing to use the site, you agree to this use of cookies and data.
  • In Latvia
  • List of Countries
  • For 7 days
  • Water Temperature
  • Weather Map
  • Weather Widgets
  • user-avatar
    Login

    Hourly Weather Krutoe

    Today, 25 August, Sunday

    Time Temperature Precipitation Wind Pressure Humidity
    00:00 +14°C° 0 mm 3 mps 747 mmHg 83%
    01:00 +14°C° 0 mm 3 mps 747 mmHg 86%
    02:00 +15°C° 0 mm 2 mps 748 mmHg 89%
    03:00 +14°C° 0 mm 2 mps 748 mmHg 92%
    04:00 +14°C° 0 mm 2 mps 748 mmHg 93%
    05:00 +14°C° 0 mm 2 mps 748 mmHg 94%
    06:00 +13°C° 0 mm 2 mps 748 mmHg 95%
    07:00 +14°C° 0 mm 3 mps 748 mmHg 88%
    08:00 +16°C° 0 mm 3 mps 749 mmHg 82%
    09:00 +17°C° 0 mm 3 mps 749 mmHg 75%
    10:00 +18°C° 0 mm 3 mps 749 mmHg 70%
    11:00 +19°C° 0 mm 4 mps 749 mmHg 65%
    12:00 +20°C° 0 mm 4 mps 749 mmHg 60%
    13:00 +21°C° 0 mm 4 mps 749 mmHg 60%
    14:00 +21°C° 0 mm 4 mps 749 mmHg 59%
    15:00 +21°C° 0 mm 4 mps 750 mmHg 58%
    16:00 +21°C° 0 mm 3 mps 749 mmHg 61%
    17:00 +20°C° 0 mm 3 mps 749 mmHg 65%
    18:00 +20°C° 0 mm 2 mps 749 mmHg 68%
    19:00 +18°C° 0 mm 2 mps 750 mmHg 72%
    20:00 +17°C° 0 mm 2 mps 750 mmHg 76%
    21:00 +15°C° 0 mm 2 mps 750 mmHg 80%
    22:00 +15°C° 0 mm 2 mps 751 mmHg 83%
    23:00 +14°C° 0 mm 2 mps 751 mmHg 86%

    Tomorrow, 26 August, Monday

    Time Temperature Precipitation Wind Pressure Humidity
    00:00 +13°C° 0 mm 2 mps 751 mmHg 89%
    01:00 +13°C° 0 mm 2 mps 751 mmHg 90%
    02:00 +12°C° 0 mm 1 mps 751 mmHg 91%
    03:00 +12°C° 0 mm 1 mps 751 mmHg 91%
    04:00 +12°C° 0 mm 1 mps 751 mmHg 91%
    05:00 +12°C° 0 mm 1 mps 751 mmHg 91%
    06:00 +10°C° 0 mm 0 mps 751 mmHg 91%
    07:00 +12°C° 0 mm 0 mps 751 mmHg 85%
    08:00 +14°C° 0 mm 0 mps 752 mmHg 80%
    09:00 +16°C° 0 mm 0 mps 752 mmHg 74%
    10:00 +17°C° 0 mm 0 mps 752 mmHg 69%
    11:00 +18°C° 0 mm 0 mps 751 mmHg 64%
    12:00 +20°C° 0 mm 0 mps 751 mmHg 59%
    13:00 +22°C° 0 mm 1 mps 751 mmHg 57%
    14:00 +22°C° 0 mm 1 mps 751 mmHg 55%
    15:00 +23°C° 0 mm 2 mps 750 mmHg 53%
    16:00 +21°C° 0 mm 2 mps 750 mmHg 57%
    17:00 +21°C° 0 mm 2 mps 749 mmHg 61%
    18:00 +21°C° 0 mm 2 mps 749 mmHg 65%
    19:00 +19°C° 0 mm 2 mps 749 mmHg 69%
    20:00 +17°C° 0 mm 2 mps 749 mmHg 73%
    21:00 +16°C° 0 mm 2 mps 748 mmHg 77%
    22:00 +16°C° 0 mm 2 mps 748 mmHg 78%
    23:00 +14°C° 0 mm 3 mps 748 mmHg 79%

    Day after tomorrow, 27 August, Tuesday

    Time Temperature Precipitation Wind Pressure Humidity
    00:00 +14°C° 0 mm 3 mps 748 mmHg 80%
    01:00 +13°C° 0 mm 3 mps 747 mmHg 82%
    02:00 +13°C° 0 mm 3 mps 747 mmHg 84%
    03:00 +13°C° 0 mm 3 mps 746 mmHg 85%
    04:00 +13°C° 0 mm 3 mps 746 mmHg 86%
    05:00 +13°C° 0 mm 4 mps 746 mmHg 86%
    06:00 +13°C° 0 mm 4 mps 745 mmHg 86%
    07:00 +14°C° 0 mm 4 mps 745 mmHg 84%
    08:00 +15°C° 0 mm 5 mps 745 mmHg 82%
    09:00 +17°C° 0 mm 5 mps 745 mmHg 80%
    10:00 +19°C° 0.4 mm 5 mps 744 mmHg 77%
    11:00 +20°C° 0.4 mm 6 mps 744 mmHg 75%
    12:00 +21°C° 0.4 mm 6 mps 744 mmHg 72%
    13:00 +21°C° 0.1 mm 6 mps 744 mmHg 67%
    14:00 +22°C° 0.1 mm 6 mps 744 mmHg 62%
    15:00 +22°C° 0.1 mm 6 mps 744 mmHg 56%
    16:00 +21°C° 0 mm 6 mps 743 mmHg 59%
    17:00 +20°C° 0 mm 5 mps 743 mmHg 62%
    18:00 +19°C° 0 mm 4 mps 743 mmHg 65%
    19:00 +18°C° 0 mm 4 mps 743 mmHg 67%
    20:00 +15°C° 0 mm 4 mps 744 mmHg 69%
    21:00 +14°C° 0 mm 4 mps 744 mmHg 71%
    22:00 +14°C° 0 mm 4 mps 744 mmHg 74%
    23:00 +13°C° 0 mm 4 mps 745 mmHg 78%

    28 August, Wednesday

    Time Temperature Precipitation Wind Pressure Humidity
    00:00 +12°C° 0 mm 3 mps 745 mmHg 82%
    01:00 +12°C° 0 mm 3 mps 745 mmHg 84%
    02:00 +11°C° 0 mm 3 mps 745 mmHg 86%
    03:00 +10°C° 0 mm 3 mps 745 mmHg 88%
    04:00 +9°C° 0 mm 3 mps 745 mmHg 89%
    05:00 +8°C° 0 mm 3 mps 746 mmHg 89%
    06:00 +7°C° 0 mm 4 mps 746 mmHg 89%
    07:00 +8°C° 0 mm 4 mps 746 mmHg 83%
    08:00 +9°C° 0 mm 5 mps 746 mmHg 76%
    09:00 +10°C° 0 mm 5 mps 747 mmHg 70%
    10:00 +12°C° 0 mm 5 mps 747 mmHg 64%
    11:00 +12°C° 0 mm 5 mps 747 mmHg 59%
    12:00 +13°C° 0 mm 6 mps 747 mmHg 54%
    13:00 +14°C° 0 mm 6 mps 747 mmHg 53%
    14:00 +14°C° 0 mm 6 mps 747 mmHg 52%
    15:00 +14°C° 0 mm 6 mps 747 mmHg 51%
    16:00 +14°C° 0 mm 5 mps 747 mmHg 56%
    17:00 +13°C° 0 mm 5 mps 747 mmHg 60%
    18:00 +12°C° 0 mm 4 mps 747 mmHg 65%
    19:00 +11°C° 0 mm 4 mps 748 mmHg 69%
    20:00 +9°C° 0 mm 3 mps 748 mmHg 73%
    21:00 +8°C° 0 mm 3 mps 748 mmHg 77%
    22:00 +8°C° 0 mm 3 mps 748 mmHg 79%
    23:00 +7°C° 0 mm 2 mps 749 mmHg 81%

    29 August, Thursday

    Time Temperature Precipitation Wind Pressure Humidity
    00:00 +7°C° 0 mm 2 mps 749 mmHg 84%
    01:00 +6°C° 0 mm 2 mps 749 mmHg 85%
    02:00 +5°C° 0 mm 3 mps 749 mmHg 87%
    03:00 +5°C° 0 mm 3 mps 749 mmHg 88%
    04:00 +4°C° 0 mm 3 mps 749 mmHg 89%
    05:00 +4°C° 0 mm 3 mps 749 mmHg 89%
    06:00 +4°C° 0 mm 3 mps 750 mmHg 90%
    07:00 +5°C° 0 mm 3 mps 750 mmHg 83%
    08:00 +7°C° 0 mm 4 mps 750 mmHg 75%
    09:00 +10°C° 0 mm 4 mps 750 mmHg 68%
    10:00 +11°C° 0 mm 4 mps 750 mmHg 64%
    11:00 +12°C° 0 mm 4 mps 750 mmHg 61%
    12:00 +13°C° 0 mm 4 mps 750 mmHg 57%
    13:00 +14°C° 0 mm 4 mps 750 mmHg 55%
    14:00 +14°C° 0 mm 4 mps 749 mmHg 54%
    15:00 +15°C° 0 mm 4 mps 749 mmHg 52%
    16:00 +14°C° 0 mm 4 mps 749 mmHg 56%
    17:00 +14°C° 0 mm 3 mps 749 mmHg 60%
    18:00 +13°C° 0 mm 3 mps 749 mmHg 63%
    19:00 +12°C° 0 mm 3 mps 749 mmHg 66%
    20:00 +10°C° 0 mm 2 mps 749 mmHg 69%
    21:00 +8°C° 0 mm 2 mps 750 mmHg 73%
    22:00 +8°C° 0 mm 2 mps 750 mmHg 75%
    23:00 +7°C° 0 mm 2 mps 750 mmHg 77%

    30 August, Friday

    Time Temperature Precipitation Wind Pressure Humidity
    00:00 +6°C° 0 mm 2 mps 750 mmHg 79%
    01:00 +6°C° 0 mm 2 mps 750 mmHg 81%
    02:00 +7°C° 0 mm 1 mps 750 mmHg 83%
    03:00 +6°C° 0 mm 1 mps 750 mmHg 85%
    04:00 +6°C° 0 mm 1 mps 750 mmHg 86%
    05:00 +6°C° 0 mm 1 mps 750 mmHg 86%
    06:00 +4°C° 0 mm 2 mps 750 mmHg 87%
    07:00 +6°C° 0 mm 2 mps 750 mmHg 80%
    08:00 +8°C° 0 mm 2 mps 750 mmHg 73%
    09:00 +10°C° 0 mm 2 mps 750 mmHg 66%
    10:00 +13°C° 0 mm 2 mps 750 mmHg 61%
    11:00 +14°C° 0 mm 2 mps 750 mmHg 55%
    12:00 +15°C° 0 mm 2 mps 750 mmHg 50%
    13:00 +16°C° 0 mm 2 mps 749 mmHg 49%
    14:00 +16°C° 0 mm 3 mps 749 mmHg 48%
    15:00 +17°C° 0 mm 3 mps 748 mmHg 47%
    16:00 +17°C° 0 mm 3 mps 748 mmHg 52%
    17:00 +16°C° 0 mm 2 mps 748 mmHg 57%
    18:00 +16°C° 0 mm 2 mps 747 mmHg 62%
    19:00 +14°C° 0 mm 3 mps 747 mmHg 66%
    20:00 +12°C° 0 mm 3 mps 747 mmHg 70%
    21:00 +11°C° 0 mm 3 mps 747 mmHg 73%
    22:00 +12°C° 0 mm 3 mps 747 mmHg 77%
    23:00 +12°C° 0 mm 4 mps 747 mmHg 81%
    Show more